This is the latest recevied weather packets stored in our database for station/object W0PE-1. If no packets are shown the sender has not sent any weather packets the latest 10 day(s).
| Time | Temp. | Humidity | Pressure | Rain* | Wind** | Luminosity | Snow |
|---|---|---|---|---|---|---|---|
| 1778261451 | 18.33° C | 84% | 1015.6 hPa | 0 mm | - | - | - |
| 1778260549 | 17.78° C | 86% | 1015.6 hPa | 0 mm | - | - | - |
| 1778259646 | 17.22° C | 88% | 1015.5 hPa | 0 mm | - | - | - |
| 1778258745 | 17.22° C | 89% | 1015.6 hPa | 0 mm | - | - | - |
| 1778257842 | 16.67° C | 90% | 1015.5 hPa | 0 mm | - | - | - |
| 1778256940 | 16.11° C | 90% | 1015.6 hPa | 0 mm | - | - | - |
| 1778256039 | 16.11° C | 90% | 1015.6 hPa | 0 mm | - | - | - |
| 1778255139 | 16.11° C | 90% | 1015.6 hPa | 0 mm | - | - | - |
| 1778254238 | 15.56° C | 91% | 1015.7 hPa | 0 mm | - | - | - |
| 1778253337 | 15.56° C | 90% | 1015.8 hPa | 0 mm | - | - | - |
| 1778252437 | 15.56° C | 90% | 1015.8 hPa | 0 mm | - | - | - |
| 1778251536 | 15° C | 90% | 1015.8 hPa | 0 mm | - | - | - |
| 1778250634 | 15° C | 90% | 1015.7 hPa | 0 mm | - | - | - |
| 1778249736 | 15° C | 90% | 1015.7 hPa | 0 mm | - | - | - |
| 1778248833 | 15° C | 90% | 1015.6 hPa | 0 mm | - | - | - |
| 1778247932 | 15° C | 90% | 1015.6 hPa | 0 mm | - | - | - |
| 1778247030 | 15° C | 89% | 1015.5 hPa | 0 mm | - | - | - |
| 1778246131 | 15° C | 89% | 1015.4 hPa | 0 mm | - | - | - |
| 1778245228 | 15.56° C | 89% | 1015.2 hPa | 0 mm | - | - | - |
| 1778244328 | 15.56° C | 89% | 1015.1 hPa | 0 mm | - | - | - |
| 1778243428 | 15.56° C | 89% | 1015.1 hPa | 0 mm | - | - | - |
| 1778242526 | 15.56° C | 89% | 1014.9 hPa | 0 mm | - | - | - |
| 1778241633 | 15.56° C | 88% | 1014.8 hPa | 0 mm | - | - | - |
| 1778240724 | 15.56° C | 88% | 1014.8 hPa | 0 mm | - | - | - |
| 1778239824 | 15.56° C | 88% | 1014.7 hPa | 0 mm | - | - | - |
* Rain latest hour (hover to see other rain measurements)
** Current wind speed in m/s (hover to see current wind gust speed)